Notices

What's New in latest Release from April 7th, 2021:

- Updated Glossary, including Speed of Maximum Gust, and Total Hourly Precipitation

- Updated national and regional climate services offices contacts and prices information

- Addition of station inventory lists for 1981-2010, 1971-2000, and 1961-1990 Normals.

If you haven't already, please take our survey and provide feedback about our website: https://eccc.sondage-survey.ca/f/LanguageSelection.aspx?s=442ca660-fcf1-47c0-95a9-59707d6fd709

Hourly Data Report for September 04, 2017

VICTORIA UNIVERSITY CS
BRITISH COLUMBIA

48°27'25.200" N
123°18'16.600" W
60.10 m
1018598
71783
WYJ

Download Data

Hourly Data (September 2017)
Hourly Data Report for September 4, 2017
TIME
LST
Temp Definition
°C
Dew Point Definition
°C
Rel Hum Definition
%
Precip. Amount Definition
mm

Wind Dir Definition
10's deg

Wind Spd Definition
km/h
Visibility Definition
km
Stn Press Definition
kPa
Hmdx Definition


Wind Chill Definition


Weather Definition


00:00 17.5 13.8 79 0.0 34 2   101.04     LegendNANA
01:00 16.6 13.9 84 0.0 0 1   101.07     LegendNANA
02:00 17.1 14.3 84 0.0 31 4   101.06     LegendNANA
03:00 20.1 14.4 70 0.0 29 7   101.04     LegendNANA
04:00 17.0 13.3 78 0.0 32 5   101.07     LegendNANA
05:00 18.0 13.6 75 0.0 2 6   101.07     LegendNANA
06:00 17.6 12.7 73 0.0 35 1   101.08     LegendNANA
07:00 21.0 13.9 64 0.0 8 2   101.11     LegendNANA
08:00 22.9 13.1 54 0.0 1 7   101.11 26   LegendNANA
09:00 25.1 12.9 47 0.0 2 8   101.08 28   LegendNANA
10:00 26.4 14.0 46 0.0 1 11   101.08 30   LegendNANA
11:00 26.5 14.1 47 0.0 1 11   101.01 30   LegendNANA
12:00 28.0 14.3 43 0.0 2 9   100.93 32   LegendNANA
13:00 29.3 13.4 38 0.0 2 10   100.90 32   LegendNANA
14:00 28.9 13.5 39 0.0 2 8   100.81 32   LegendNANA
15:00 27.8 13.4 41 0.0 2 4   100.74 31   LegendNANA
16:00 28.3 13.8 41 0.0 4 2   100.67 32   LegendNANA
17:00 28.1 14.5 43 0.0 9 3   100.60 32   LegendNANA
18:00 25.1 14.9 53 0.0   0   100.54 29   LegendNANA
19:00 22.0 15.4 66 0.0 27 1   100.51 26   LegendNANA
20:00 20.7 14.7 69 0.0 24 2   100.53     LegendNANA
21:00 19.5 13.9 70 0.0 0 1   100.50     LegendNANA
22:00 19.1 14.0 72 0.0 0 1   100.49     LegendNANA
23:00 18.8 14.0 74 0.0 26 2   100.52     LegendNANA

Notes on Data Quality.

Legend

  • E = Estimated
  • M = Missing
  • NA = Not Available*
  • [empty] = Indicates an unobserved value
Date modified: